Location: Étavigny
(49.1201°N, 2.9800°E)
Time: 08:57:11
(UTC+00:00)

CZ-4C R/B - Pass Details

Date: 28 January 2023
Orbit: 456 x 612 km, 98.1° (Epoch: 22 March)

Event Time Altitude Azimuth Distance (km) Brightness Sun altitude
Rises 15:54:06 0° 71° (ENE) 2,715 6.2 5.3°
Enters shadow 17:09:22 -36° 2° (N) 8,487 9.2 -5.5°
Exits shadow 17:23:49 -2° 20° (NNE) 3,069 6.8 -7.7°
Maximum altitude 17:30:28 29° 95° (E) 1,012 4.2 -8.8°
